Current weather by "City, St" or "zip code"  
 

Current Conditions: Port Meadville Airport, PA

Fair


35.0 F

Last Updated on Feb 28 2021, 12:53 am EST
Humidity: 85%
Wind Speed: E 3.5 mph
Barometer 30.17 in
Dewpoint: 30.9 F
Visibility: 10.00 mi
Precip: --
Heat Index: NA
Wind Chill: NA
Current conditions at:

Port Meadville Airport, PA (KGKJ)

Lat: 41.62584 Lon: 80.21231

Local Radar Image active severe weather and emergency alerts image image weather storm and storm spotter reports image weather observation monitoring service image
Local
Radar
Active
Alerts
Storm Reports Obs
Monitoring

Sign-up For Email & Text Message Weather Alert Notification Services



Advertise Here

Observation History for Port Meadville Airport, PA


Time Wind
(mph)
Vis
(mi)
Weather Precip (in) Temperature (F) Relative
Humidity
Wind
Chill
(F)
Heat
Index
(F)
Pressure
Air Dwpt altimeter
(in)
sea level
(mb)
Rmks
12:53 am EST E 3.5 10.00 Fair -- 35.0 30.9 85% NA NA 30.17 1022.7
11:53 pm EST N 0.0 8.00 Fair -- 34.0 30.9 89% NA NA 30.19 1023.4
10:53 pm EST SE 3.5 10.00 Fair -- 35.0 30.9 85% NA NA 30.21 1024.0
9:53 pm EST E 3.5 9.00 Fair -- 37.0 32.0 82% NA NA 30.21 1024.2
8:53 pm EST E 4.6 10.00 Fair -- 37.0 32.0 82% 33 NA 30.21 1024.0
7:53 pm EST N 0.0 10.00 Fair -- 37.0 32.0 82% NA NA 30.20 1023.8
6:53 pm EST N 0.0 10.00 Fair -- 38.0 32.0 79% NA NA 30.18 1023.0
5:53 pm EST W 4.6 10.00 Fair -- 40.0 33.1 77% 37 NA 30.17 1022.6
4:53 pm EST W 6.9 10.00 Fair -- 42.0 33.1 71% 38 NA 30.14 1021.5
3:53 pm EST 5.8 10.00 A Few Clouds -- 42.0 34.0 73% 38 NA 30.12 1020.7
2:53 pm EST W 11.5 10.00 Partly Cloudy -- 43.0 34.0 71% 37 NA 30.08 1019.4
1:53 pm EST W 9.2 10.00 Mostly Cloudy -- 41.0 34.0 76% 35 NA 30.05 1018.4
12:53 pm EST W 9.2 10.00 Overcast -- 40.0 36.0 86% 34 NA 30.03 1017.8
11:53 am EST W 9.2 0.50 Fog -- 39.0 37.9 96% 33 NA 30.01 1017.0
10:53 am EST SW 9.2 10.00 Overcast Trace 40.0 37.9 93% 34 NA 29.98 1016.1
9:53 am EST 5.8 3.00 Light Rain Fog/Mist 00.06 38.0 37.0 97% 34 NA 29.94 1014.8
8:53 am EST 5.8 2.00 Light Rain Fog/Mist 00.06 37.0 35.1 93% 32 NA 29.95 1015.3
7:53 am EST S 6.9 2.50 Light Rain 00.01 39.0 34.0 82% 34 NA 29.90 1013.7
6:53 am EST SE 9.2 10.00 Overcast -- 39.0 32.0 76% 33 NA 29.88 1012.9
5:53 am EST 5.8 10.00 Overcast -- 38.0 32.0 79% 34 NA 29.90 1013.6
4:53 am EST SE 5.8 10.00 Overcast Trace 38.0 32.0 79% 34 NA 29.91 1013.9
3:53 am EST 4.6 10.00 Overcast -- 38.0 32.0 79% 34 NA 29.93 1014.5
2:53 am EST SE 8.1 10.00 Overcast -- 38.0 30.9 76% 32 NA 29.96 1015.6
1:53 am EST 5.8 10.00 Overcast -- 38.0 30.0 73% 34 NA 30.00 1016.8

Regional Weather Observation


Port Meadville Airport, PA (KGKJ)

Fair
35.0 F

Erie, Erie International Airport, PA (KERI)

Fair
36.0 F

Youngstown, Youngstown-Warren Regional Airport, OH (KYNG)

Overcast
35.0 F

New Castle, New Castle Municipal Airport, PA (KUCP)

Fog/Mist
31.0 F

Franklin, Venango Regional Airport, PA (KFKL)

Fog/Mist
30.0 F

Willoughby, OH (KLNN)

Fair
32.0 F

Advertise Here


Advertise Here